Torna al catalogo

DELTA 1 DEB

AttivoPO
NORAD 7959·DEBRIS·🇺🇸 United States

Lanciato Jul 23, 1972 da Vandenberg Space Force Base

Loading…

Prossimi Passaggi (prossime 24 ore)

TLE

AggiornatoSource: Space-Track

Epoca: Sep 14, 2026, 14:15 UTC

1 07959U 72058CP  26257.59382494  .00000336  00000-0  13728-3 0  9994
2 07959  98.0252 183.1806 0235638 128.5380 233.7178 14.18616400760868

Traccia DELTA 1 DEB in tempo reale con AllMySat

Download on the App Store